When you browse on this site, cookies collect data to enhance your experience and personalize the content and advertising you see.
Visit our Privacy Policy to learn more. By continuing to use the site, you agree to this use of cookies and data.
  • In Latvia
  • List of Countries
  • For 7 days
  • Water Temperature
  • Satellite Maps
  • Weather Map
  • Weather Widgets
  • user-avatar
    Login

    Hourly Weather Giumri

    Today, 14 December, Friday

    Time Temperature Precipitation Wind Pressure Humidity
    00:00 -6°C° 0 mm 1 mps 633 mmHg 77%
    01:00 -6°C° 0 mm 1 mps 633 mmHg 77%
    02:00 -7°C° 0 mm 1 mps 634 mmHg 77%
    03:00 -7°C° 0 mm 2 mps 633 mmHg 75%
    04:00 -7°C° 0 mm 2 mps 633 mmHg 75%
    05:00 -6°C° 0 mm 1 mps 634 mmHg 75%
    06:00 -6°C° 0 mm 1 mps 634 mmHg 75%
    07:00 -6°C° 0 mm 1 mps 634 mmHg 74%
    08:00 -4°C° 0 mm 1 mps 634 mmHg 72%
    09:00 -5°C° 0 mm 2 mps 635 mmHg 71%
    10:00 -4°C° 0.1 mm 2 mps 635 mmHg 70%
    11:00 -3°C° 0.1 mm 2 mps 635 mmHg 70%
    12:00 -3°C° 0.1 mm 2 mps 635 mmHg 69%
    13:00 -3°C° 0.4 mm 2 mps 635 mmHg 72%
    14:00 -2°C° 0.4 mm 2 mps 634 mmHg 75%
    15:00 -2°C° 0.4 mm 2 mps 634 mmHg 78%
    16:00 -1°C° 0.2 mm 1 mps 635 mmHg 81%
    17:00 -2°C° 0.2 mm 1 mps 635 mmHg 83%
    18:00 -3°C° 0.2 mm 1 mps 635 mmHg 85%
    19:00 -3°C° 0.1 mm 1 mps 635 mmHg 85%
    20:00 -3°C° 0.1 mm 1 mps 635 mmHg 84%
    21:00 -4°C° 0.1 mm 1 mps 635 mmHg 84%
    22:00 -4°C° 0 mm 1 mps 635 mmHg 84%
    23:00 -4°C° 0 mm 1 mps 635 mmHg 84%

    Tomorrow, 15 December, Saturday

    Time Temperature Precipitation Wind Pressure Humidity
    00:00 -4°C° 0 mm 1 mps 636 mmHg 83%
    01:00 -4°C° 0 mm 1 mps 636 mmHg 84%
    02:00 -4°C° 0 mm 1 mps 636 mmHg 84%
    03:00 -4°C° 0 mm 1 mps 636 mmHg 84%
    04:00 -4°C° 0 mm 1 mps 636 mmHg 84%
    05:00 -4°C° 0 mm 1 mps 636 mmHg 84%
    06:00 -4°C° 0 mm 1 mps 635 mmHg 84%
    07:00 -4°C° 0 mm 1 mps 636 mmHg 82%
    08:00 -3°C° 0 mm 1 mps 636 mmHg 80%
    09:00 -5°C° 0 mm 2 mps 636 mmHg 79%
    10:00 -3°C° 0 mm 2 mps 636 mmHg 76%
    11:00 -2°C° 0 mm 2 mps 636 mmHg 74%
    12:00 +1°C° 0 mm 2 mps 636 mmHg 72%
    13:00 +1°C° 0 mm 2 mps 636 mmHg 72%
    14:00 +1°C° 0 mm 2 mps 636 mmHg 72%
    15:00 +1°C° 0 mm 2 mps 636 mmHg 72%
    16:00 -1°C° 0 mm 2 mps 636 mmHg 75%
    17:00 0°C° 0 mm 1 mps 636 mmHg 77%
    18:00 -1°C° 0 mm 1 mps 635 mmHg 79%
    19:00 -2°C° 0 mm 1 mps 635 mmHg 80%
    20:00 -2°C° 0 mm 1 mps 635 mmHg 80%
    21:00 -2°C° 0 mm 1 mps 635 mmHg 80%
    22:00 -2°C° 0 mm 1 mps 635 mmHg 80%
    23:00 -2°C° 0 mm 1 mps 635 mmHg 81%

    Day after tomorrow, 16 December, Sunday

    Time Temperature Precipitation Wind Pressure Humidity
    00:00 -2°C° 0 mm 1 mps 635 mmHg 81%
    01:00 -2°C° 0 mm 1 mps 635 mmHg 81%
    02:00 -2°C° 0 mm 1 mps 635 mmHg 81%
    03:00 -2°C° 0 mm 1 mps 635 mmHg 81%
    04:00 -2°C° 0 mm 1 mps 635 mmHg 81%
    05:00 -2°C° 0 mm 1 mps 634 mmHg 81%
    06:00 -2°C° 0 mm 1 mps 634 mmHg 81%
    07:00 -1°C° 0 mm 1 mps 635 mmHg 79%
    08:00 -1°C° 0 mm 1 mps 635 mmHg 78%
    09:00 0°C° 0 mm 1 mps 635 mmHg 76%
    10:00 +1°C° 0 mm 1 mps 635 mmHg 74%
    11:00 +2°C° 0 mm 2 mps 635 mmHg 72%
    12:00 +3°C° 0 mm 2 mps 635 mmHg 70%
    13:00 +3°C° 0 mm 2 mps 635 mmHg 70%
    14:00 +3°C° 0 mm 2 mps 634 mmHg 70%
    15:00 +3°C° 0 mm 2 mps 634 mmHg 71%
    16:00 +2°C° 0 mm 2 mps 634 mmHg 73%
    17:00 +2°C° 0 mm 1 mps 634 mmHg 74%
    18:00 +1°C° 0 mm 1 mps 634 mmHg 76%
    19:00 +1°C° 0 mm 1 mps 634 mmHg 76%
    20:00 +1°C° 0 mm 1 mps 634 mmHg 77%
    21:00 +1°C° 0 mm 1 mps 634 mmHg 77%
    22:00 0°C° 0 mm 1 mps 634 mmHg 78%
    23:00 0°C° 0 mm 1 mps 635 mmHg 78%

    17 December, Monday

    Time Temperature Precipitation Wind Pressure Humidity
    00:00 0°C° 0 mm 1 mps 635 mmHg 79%
    01:00 0°C° 0 mm 1 mps 634 mmHg 79%
    02:00 -1°C° 0 mm 1 mps 634 mmHg 79%
    03:00 -1°C° 0 mm 1 mps 634 mmHg 79%
    04:00 -1°C° 0 mm 1 mps 634 mmHg 79%
    05:00 -1°C° 0 mm 1 mps 633 mmHg 79%
    06:00 -1°C° 0 mm 1 mps 633 mmHg 79%
    07:00 -1°C° 0 mm 1 mps 633 mmHg 78%
    08:00 0°C° 0 mm 1 mps 633 mmHg 76%
    09:00 +1°C° 0 mm 1 mps 634 mmHg 75%
    10:00 +2°C° 0 mm 1 mps 633 mmHg 73%
    11:00 +3°C° 0 mm 1 mps 633 mmHg 71%
    12:00 +4°C° 0 mm 1 mps 633 mmHg 69%
    13:00 +3°C° 0 mm 1 mps 632 mmHg 70%
    14:00 +3°C° 0 mm 1 mps 632 mmHg 70%
    15:00 +3°C° 0 mm 1 mps 632 mmHg 70%
    16:00 +2°C° 0 mm 1 mps 631 mmHg 73%
    17:00 +1°C° 0 mm 1 mps 631 mmHg 76%
    18:00 0°C° 0 mm 1 mps 631 mmHg 79%
    19:00 0°C° 0 mm 1 mps 631 mmHg 80%
    20:00 0°C° 0 mm 1 mps 632 mmHg 80%
    21:00 0°C° 0 mm 1 mps 632 mmHg 81%
    22:00 -1°C° 0.1 mm 1 mps 632 mmHg 82%
    23:00 -1°C° 0.1 mm 1 mps 632 mmHg 83%

    18 December, Tuesday

    Time Temperature Precipitation Wind Pressure Humidity
    00:00 -1°C° 0.1 mm 1 mps 631 mmHg 85%
    01:00 -1°C° 0.2 mm 1 mps 631 mmHg 85%
    02:00 -1°C° 0.2 mm 1 mps 631 mmHg 86%
    03:00 -1°C° 0.2 mm 1 mps 631 mmHg 87%
    04:00 -1°C° 0.3 mm 1 mps 631 mmHg 87%
    05:00 -1°C° 0.3 mm 1 mps 631 mmHg 87%
    06:00 -1°C° 0.3 mm 1 mps 631 mmHg 88%
    07:00 0°C° 0.3 mm 1 mps 631 mmHg 87%
    08:00 0°C° 0.3 mm 1 mps 632 mmHg 87%
    09:00 0°C° 0.3 mm 1 mps 632 mmHg 86%
    10:00 +1°C° 0.3 mm 1 mps 632 mmHg 85%
    11:00 +1°C° 0.3 mm 1 mps 632 mmHg 83%
    12:00 +2°C° 0.3 mm 1 mps 632 mmHg 82%
    13:00 +2°C° 0.2 mm 1 mps 632 mmHg 81%
    14:00 +2°C° 0.2 mm 1 mps 632 mmHg 81%
    15:00 +2°C° 0.2 mm 1 mps 632 mmHg 81%
    16:00 +1°C° 0.1 mm 1 mps 632 mmHg 83%
    17:00 0°C° 0.1 mm 0 mps 632 mmHg 86%
    18:00 -1°C° 0.1 mm 0 mps 633 mmHg 89%
    19:00 -1°C° 0.1 mm 0 mps 633 mmHg 88%
    20:00 -2°C° 0.1 mm 0 mps 633 mmHg 88%
    21:00 -2°C° 0.1 mm 0 mps 633 mmHg 87%
    22:00 -2°C° 0.1 mm 0 mps 633 mmHg 87%
    23:00 -1°C° 0.1 mm 1 mps 633 mmHg 87%

    19 December, Wednesday

    Time Temperature Precipitation Wind Pressure Humidity
    00:00 -2°C° 0.1 mm 1 mps 634 mmHg 87%
    01:00 -2°C° 0.1 mm 1 mps 634 mmHg 87%
    02:00 -2°C° 0.1 mm 1 mps 634 mmHg 87%
    03:00 -2°C° 0.1 mm 1 mps 634 mmHg 87%
    04:00 -2°C° 0.1 mm 1 mps 634 mmHg 87%
    05:00 -2°C° 0.1 mm 1 mps 634 mmHg 88%
    06:00 -3°C° 0.1 mm 1 mps 634 mmHg 88%
    07:00 -2°C° 0 mm 1 mps 634 mmHg 87%
    08:00 -2°C° 0 mm 1 mps 635 mmHg 85%
    09:00 -1°C° 0 mm 1 mps 635 mmHg 84%
    10:00 -2°C° 0 mm 2 mps 635 mmHg 82%
    11:00 -1°C° 0 mm 2 mps 635 mmHg 80%
    12:00 +1°C° 0 mm 2 mps 635 mmHg 78%
    13:00 +1°C° 0 mm 2 mps 635 mmHg 78%
    14:00 +1°C° 0 mm 2 mps 634 mmHg 78%
    15:00 +1°C° 0 mm 2 mps 634 mmHg 78%
    16:00 -1°C° 0 mm 2 mps 634 mmHg 80%
    17:00 -2°C° 0 mm 2 mps 634 mmHg 82%
    18:00 -3°C° 0 mm 2 mps 635 mmHg 84%
    19:00 -3°C° 0 mm 2 mps 635 mmHg 84%
    20:00 -3°C° 0 mm 2 mps 635 mmHg 84%
    21:00 -1°C° 0 mm 1 mps 635 mmHg 84%
    22:00 -1°C° 0 mm 1 mps 635 mmHg 85%
    23:00 -1°C° 0 mm 1 mps 635 mmHg 85%
    Show more